Regional Weather Roundup
Issued by NWS State College, PA

Home | Current Version | Previous Version | Graphics & Text | Print | Product List | Glossary Off
Versions: 1 2 3 4 5 6 7 8 9 10 11 12 13 14 15 16 17 18 19 20 21 22 23 24 25 26 27 28 29 30 31 32 33 34 35 36 37 38 39 40 41 42 43 44 45 46 47 48 49 50

000
ASUS41 KCTP 300710
RWRCTP

REGIONAL WEATHER ROUNDUP
NATIONAL WEATHER SERVICE STATE COLLEGE PA
300 AM EDT THU MAR 30 2017

Note: "fair" indicates few or no clouds below 12,000 feet with no
significant weather and/or obstructions to visibility.

* = STATION THAT DOES NOT REPORT PRECIPITATION /E.G. RAIN...SNOW...ETC/
    THUNDER OR FOG.

PAZ002>004-007>009-013>016-020>023-029>032-300800-
WESTERN PENNSYLVANIA

CITY           SKY/WX    TMP DP  RH WIND       PRES   REMARKS
ERIE           CLOUDY    41  32  70 NE7       30.19F
MEADVILLE      CLOUDY    42  27  55 E6        30.15F
FRANKLIN*      CLOUDY    43  25  49 E12G17    30.15F
NEW CASTLE     FAIR      45  30  55 NE8       30.14S
BEAVER COUNTY  NOT AVBL
BUTLER*        PTCLDY    45  28  53 E15       30.13F
PITTSBURGH INT PTCLDY    46  30  53 NE9       30.11S
PITTSBURGH     CLOUDY    46  27  47 NE7       30.10R
INDIANA*       MOCLDY    43  28  56 E8        30.18R
LATROBE        CLOUDY    46  28  49 NE8       30.13R
WASHINGTON CO* PTCLDY    43  30  61 NE3       30.11R
$$

PAZ004>006-010>012-017>019-024>028-033>037-041-042-045-046-049>053-300800-
CENTRAL PENNSYLVANIA

CITY           SKY/WX    TMP DP  RH WIND       PRES   REMARKS
BRADFORD       CLOUDY    34  25  69 E7        30.17F
DUBOIS         CLOUDY    39  26  59 E7        30.16S
CLEARFIELD     CLOUDY    38  27  64 E8        30.20R
JOHNSTOWN      CLOUDY    40  27  59 E7        30.13R
ALTOONA        CLOUDY    41  29  62 E5        30.18R
STATE COLLEGE  CLOUDY    38  27  64 N6        30.22R
WILLIAMSPORT   CLOUDY    36  26  67 CALM      30.27R
SELINSGROVE    PTCLDY    39  27  62 NE9       30.25R
FT INDIANTOWN  CLOUDY    39  25  57 NE8       30.21R
CAPITAL CITY   PTCLDY    43  24  47 NE5       30.23R
HARRISBURG     CLOUDY    41  26  55 NE5       30.23R
YORK           PTCLDY    33  29  85 CALM      30.21R
$$

PAZ038>040-043-044-047-048-054-055-060>062-067>071-300800-
EASTERN PENNSYLVANIA

CITY           SKY/WX    TMP DP  RH WIND       PRES   REMARKS
SCRANTON       CLEAR     31  24  75 CALM      30.22R
MOUNT POCONO   CLEAR     28  22  78 NW3       30.16S
ALLENTOWN      CLOUDY    37  22  54 NW3       30.23S
QUAKERTOWN*    CLOUDY    36  23  60 N5        30.22S
READING        PTCLDY    39  26  59 N6        30.23R
LANCASTER      PTCLDY    38  27  64 NE6       30.22R
COATESVILLE    MOSUNNY   39  25  56 NE5G13    30.19S
POTTSTOWN      PTCLDY    35  23  61 N3        30.23F
BLUE BELL      PTCLDY    36  27  69 CALM      30.21F
DOYLESTOWN     MOCLDY    35  24  64 CALM      30.20F
WILLOW GROVE   NOT AVBL
NORTH PHILA    PTCLDY    39  25  57 N7        30.22F
PHILADELPHIA   MOCLDY    42  25  50 NE12      30.20F
$$




USA.gov is the U.S. government's official web portal to all federal, state and local government web resources and services.